Snowfall_Accumulation
0.0 0.0 0.0 0.0 0.0 0.0 0.0 0.0 0.0 0.0 0.0 0.0 0.0 0.0 0.0 0.0 0.0 0.0 0.0 0.0 0.0 0.0
0.0 0.0 0.0 0.0 0.0 0.0 0.0 0.0 0.0 0.0 0.0 0.0 0.0 0.0 0.0 0.0 0.0 0.0 0.0 0.0 0.0 0.0
0.0 0.2 0.0 0.0 0.0 0.0 0.0 0.0 0.0 0.0 0.0 0.0 0.0 0.0 0.0 0.0 0.1 0.0 0.1 0.0 0.0 0.0
0.0 0.5 0.0 1.1 0.0 0.0 0.0 0.0 0.0 0.0 0.0 0.1 0.0 0.0 0.0 0.1 0.1 0.0 0.0 0.0 0.0 0.0
4.1 2.9 0.7 0.3 1.7 0.0 0.0 0.0 0.0 0.0 0.0 0.0 0.0 0.1 0.0 0.0 0.0 0.0 0.1 0.3 0.2 0.1
8.1 8.6 6.5 2.3 0.0 1.4 0.0 0.0 0.0 0.0 0.0 0.0 0.0 0.0 0.1 0.0 0.0 0.1 0.0 0.0 0.1 0.0
7.9 8.6 9.8 8.5 7.3 5.6 4.0 0.4 0.3 0.0 0.0 0.0 0.0 0.0 0.0 0.0 0.0 0.4 0.1 0.1 0.0 0.0
6.6 7.0 7.1 8.4 7.9 8.0 7.9 7.1 5.3 3.8 1.9 0.0 0.0 0.0 0.0 0.2 0.4 0.5 0.5 0.2 0.5 0.1
5.4 5.4 5.5 6.3 7.3 7.4 7.4 7.7 8.1 8.5 3.7 5.0 1.4 0.0 0.0 0.3 0.6 0.3 0.5 0.4 0.6 0.4
5.4 5.4 5.5 5.6 5.6 5.4 6.7 6.9 6.9 7.6 8.0 8.0 5.5 0.0 0.0 1.0 1.2 0.8 0.5 0.3 0.2 0.2
4.4 5.0 5.0 5.6 5.8 6.3 6.4 6.5 6.5 6.4 6.4 7.1 5.8 3.3 0.2 4.4 3.1 2.6 2.4 1.9 1.6 1.1
3.8 4.1 4.4 4.7 5.6 6.0 6.3 6.5 6.7 7.1 7.0 7.0 7.7 5.0 4.6 6.2 5.9 4.6 2.9 2.2 1.7 1.2
3.1 3.3 3.6 4.1 4.5 5.1 5.3 6.1 6.5 6.7 7.7 7.1 6.5 6.3 3.7 5.2 5.2 5.1 4.5 2.1 1.5 1.0
1.9 2.7 3.0 3.3 3.5 3.9 4.4 4.7 5.0 5.3 5.5 5.7 6.4 6.3 5.3 4.7 4.1 3.7 3.6 3.4 3.3 2.8